Weather History for Burlington, NC

Change the Weather History Date:

Friday, July 5, 2013

  Actual Average Record
Temperature  
Mean Temperature 78 °F -  
Max Temperature 87 °F 88 °F 100 °F (2012)
Min Temperature 71 °F 65 °F 58 °F (1967)
Cooling Degree Days 14    
Growing Degree Days 28 (Base 50)    
Moisture  
Dew Point 72 °F    
Average Humidity 83    
Maximum Humidity 94    
Minimum Humidity 61    
Precipitation  
Precipitation 0.01 in - - ()
Sea Level Pressure  
Sea Level Pressure 30.24 in    
Wind  
Wind Speed 3 mph (South)    
Max Wind Speed 9 mph    
Max Gust Speed -    
Visibility 9 miles    
Events Rain    
Averages and records for this station are not official NWS values.
T = Trace of Precipitation, MM = Missing Value Source: NWS Daily Summary

Daily Weather History Graph

Daily Weather History Graph

Search for Another Location

Airport:

Trip Planner

Search our weather history database for the weather conditions in past years. The results will help you decide how hot, cold, wet, or windy it might be!

Date:

Astronomy

Jul. 05, 2013 Rise Set
Actual Time 6:06 AM EDT 8:38 PM EDT
Civil Twilight 5:36 AM EDT 9:08 PM EDT
Nautical Twilight 4:59 AM EDT 9:45 PM EDT
Astronomical Twilight 4:18 AM EDT 10:26 PM EDT
Moon 4:03 AM EDT (7/5) 6:33 PM EDT (7/5)
Length of Visible Light 15h 31m
Length of Day
14h 31m
Waning Crescent, 6% of the Moon is Illuminated
Jul 5
Waning Crescent
Jul 8
New
Jul 15
First Quarter
Jul 22
Full
Jul 29
Last Quarter

Hourly Weather History & Observations

Time (EDT) Temp. Heat Index Dew Point Humidity Pressure Visibility Wind Dir Wind Speed Gust Speed Precip Events Conditions
12:54 AM 73.0 °F - 70.0 °F 90% 30.24 in 10.0 mi SE 3.5 mph - N/A   Clear
1:54 AM 73.0 °F - 70.0 °F 90% 30.24 in 10.0 mi Variable 3.5 mph - N/A   Clear
2:50 AM 71.6 °F - 69.8 °F 94% 30.25 in 9.0 mi Calm Calm - N/A   Mostly Cloudy
2:54 AM 72.0 °F - 70.0 °F 93% 30.23 in 9.0 mi Calm Calm - N/A   Mostly Cloudy
3:11 AM 71.6 °F - 69.8 °F 94% 30.25 in 10.0 mi Calm Calm - N/A   Overcast
3:54 AM 73.0 °F - 70.0 °F 90% 30.22 in 9.0 mi Calm Calm - N/A   Overcast
4:54 AM 73.0 °F - 71.1 °F 93% 30.22 in 7.0 mi SSE 3.5 mph - N/A   Overcast
5:54 AM 73.9 °F - 71.1 °F 91% 30.24 in 8.0 mi South 4.6 mph - N/A   Overcast
6:54 AM 73.9 °F - 72.0 °F 93% 30.24 in 6.0 mi South 3.5 mph - N/A   Overcast
7:54 AM 75.0 °F - 72.0 °F 90% 30.26 in 7.0 mi South 4.6 mph - 0.00 in Rain Light Rain
8:37 AM 75.2 °F - 71.6 °F 89% 30.28 in 8.0 mi South 4.6 mph - 0.00 in   Overcast
8:54 AM 75.9 °F - 72.0 °F 87% 30.27 in 9.0 mi SSE 4.6 mph - 0.00 in   Overcast
9:45 AM 78.8 °F - 71.6 °F 78% 30.29 in 10.0 mi South 6.9 mph - N/A   Scattered Clouds
9:54 AM 80.1 °F 83.8 °F 72.0 °F 76% 30.27 in 10.0 mi Variable 6.9 mph - N/A   Partly Cloudy
10:09 AM 78.8 °F - 71.6 °F 78% 30.29 in 10.0 mi SSE 8.1 mph - N/A   Mostly Cloudy
10:54 AM 81.0 °F 85.2 °F 72.0 °F 74% 30.27 in 10.0 mi South 5.8 mph - N/A   Mostly Cloudy
11:02 AM 82.4 °F 88.2 °F 73.4 °F 74% 30.28 in 10.0 mi SSE 6.9 mph - N/A   Scattered Clouds
11:54 AM 82.9 °F 88.0 °F 72.0 °F 69% 30.25 in 10.0 mi SSE 6.9 mph - N/A   Mostly Cloudy
12:54 PM 82.9 °F 87.5 °F 71.1 °F 67% 30.26 in 10.0 mi South 9.2 mph - N/A   Overcast
1:54 PM 84.9 °F 91.4 °F 73.0 °F 67% 30.23 in 10.0 mi SSE 6.9 mph - 0.00 in   Partly Cloudy
2:54 PM 84.9 °F 90.7 °F 72.0 °F 65% 30.22 in 10.0 mi South 6.9 mph - N/A   Scattered Clouds
3:54 PM 86.0 °F 91.5 °F 71.1 °F 61% 30.19 in 10.0 mi SSE 4.6 mph - N/A   Mostly Cloudy
4:54 PM 82.0 °F 87.4 °F 73.0 °F 74% 30.19 in 10.0 mi West 5.8 mph - N/A   Mostly Cloudy
5:54 PM 86.0 °F 93.0 °F 73.0 °F 65% 30.17 in 10.0 mi WSW 3.5 mph - N/A   Mostly Cloudy
6:54 PM 81.0 °F 85.8 °F 73.0 °F 77% 30.17 in 10.0 mi East 6.9 mph - 0.00 in Rain Light Rain
7:54 PM 75.9 °F - 73.0 °F 91% 30.20 in 10.0 mi WSW 3.5 mph - 0.01 in   Scattered Clouds
8:54 PM 73.9 °F - 71.1 °F 91% 30.20 in 10.0 mi Calm Calm - N/A   Mostly Cloudy
9:54 PM 73.9 °F - 71.1 °F 91% 30.22 in 10.0 mi Calm Calm - N/A   Clear
10:54 PM 73.9 °F - 72.0 °F 93% 30.24 in 10.0 mi Calm Calm - N/A   Mostly Cloudy
11:08 PM 73.4 °F - 71.6 °F 94% 30.25 in 10.0 mi Calm Calm - N/A   Mostly Cloudy
11:20 PM 73.4 °F - 71.6 °F 94% 30.25 in 10.0 mi Calm Calm - N/A   Scattered Clouds
11:54 PM 73.0 °F - 71.1 °F 93% 30.23 in 10.0 mi Calm Calm - N/A   Partly Cloudy